Total_Precipitation_Accumulation
0.00 0.00 0.00 0.00 0.00 0.00 0.00 0.00 0.00 0.00 0.02 0.05 0.05 0.05 0.08 0.11 0.07 0.02 0.00 0.00 0.00 0.00 0.00 0.00 0.00 0.00 0.00 0.00 0.00 0.00 0.00 0.00 0.00 0.00 0.00 0.00 0.00 0.00 0.00 0.00 0.00 0.00 0.00 0.00 0.00
0.00 0.00 0.00 0.00 0.00 0.00 0.00 0.00 0.00 0.00 0.00 0.00 0.00 0.02 0.04 0.04 0.03 0.05 0.00 0.00 0.00 0.00 0.00 0.00 0.00 0.00 0.00 0.00 0.00 0.00 0.00 0.00 0.00 0.00 0.00 0.00 0.00 0.00 0.00 0.00 0.00 0.00 0.00 0.00 0.00
0.00 0.00 0.00 0.00 0.00 0.00 0.00 0.00 0.00 0.00 0.00 0.00 0.00 0.00 0.02 0.02 0.04 0.01 0.00 0.00 0.00 0.01 0.00 0.00 0.00 0.01 0.02 0.00 0.00 0.00 0.00 0.00 0.00 0.00 0.00 0.00 0.00 0.00 0.00 0.00 0.00 0.00 0.00 0.00 0.00
0.00 0.00 0.00 0.00 0.00 0.00 0.00 0.00 0.00 0.00 0.00 0.00 0.00 0.00 0.01 0.02 0.02 0.00 0.00 0.00 0.00 0.03 0.01 0.00 0.00 0.02 0.02 0.01 0.00 0.00 0.00 0.00 0.00 0.00 0.00 0.00 0.00 0.00 0.00 0.00 0.00 0.00 0.00 0.00 0.00
0.00 0.00 0.00 0.00 0.00 0.00 0.00 0.00 0.00 0.00 0.00 0.01 0.01 0.02 0.02 0.03 0.01 0.00 0.00 0.00 0.00 0.01 0.01 0.00 0.00 0.01 0.01 0.00 0.01 0.00 0.00 0.00 0.00 0.00 0.00 0.00 0.00 0.00 0.00 0.00 0.00 0.00 0.00 0.00 0.00
0.00 0.00 0.00 0.00 0.00 0.00 0.00 0.00 0.00 0.00 0.00 0.01 0.04 0.03 0.02 0.02 0.00 0.00 0.00 0.00 0.00 0.00 0.01 0.01 0.01 0.00 0.01 0.00 0.02 0.00 0.00 0.00 0.00 0.00 0.00 0.00 0.00 0.00 0.00 0.00 0.00 0.00 0.00 0.00 0.00
0.02 0.01 0.00 0.00 0.00 0.00 0.00 0.00 0.00 0.00 0.00 0.02 0.05 0.03 0.03 0.00 0.00 0.00 0.00 0.00 0.00 0.00 0.00 0.01 0.01 0.08 0.06 0.02 0.00 0.01 0.01 0.00 0.00 0.00 0.00 0.00 0.00 0.00 0.00 0.00 0.00 0.00 0.00 0.00 0.00
0.02 0.03 0.02 0.01 0.01 0.00 0.01 0.01 0.01 0.01 0.02 0.01 0.00 0.04 0.04 0.00 0.00 0.00 0.00 0.00 0.00 0.00 0.00 0.00 0.00 0.03 0.07 0.05 0.02 0.03 0.05 0.01 0.00 0.00 0.00 0.00 0.00 0.00 0.00 0.00 0.00 0.00 0.00 0.00 0.00
0.02 0.02 0.02 0.01 0.02 0.02 0.02 0.01 0.01 0.03 0.06 0.02 0.00 0.04 0.01 0.00 0.00 0.00 0.00 0.00 0.00 0.00 0.00 0.00 0.01 0.05 0.06 0.10 0.11 0.08 0.03 0.01 0.00 0.00 0.00 0.00 0.00 0.00 0.00 0.00 0.00 0.00 0.00 0.00 0.00
0.03 0.02 0.02 0.02 0.02 0.03 0.04 0.02 0.03 0.07 0.07 0.04 0.02 0.03 0.00 0.00 0.00 0.00 0.00 0.00 0.00 0.01 0.02 0.02 0.04 0.06 0.07 0.14 0.10 0.03 0.02 0.01 0.00 0.00 0.00 0.00 0.00 0.00 0.00 0.00 0.00 0.00 0.00 0.00 0.00
0.06 0.07 0.05 0.02 0.03 0.04 0.02 0.03 0.03 0.07 0.08 0.01 0.01 0.00 0.00 0.00 0.00 0.00 0.00 0.00 0.00 0.03 0.04 0.03 0.06 0.04 0.04 0.02 0.03 0.02 0.05 0.02 0.00 0.00 0.01 0.00 0.00 0.00 0.00 0.00 0.00 0.00 0.00 0.00 0.00
0.05 0.04 0.04 0.03 0.04 0.05 0.06 0.05 0.00 0.01 0.06 0.03 0.00 0.00 0.00 0.00 0.00 0.00 0.00 0.00 0.01 0.01 0.05 0.12 0.07 0.00 0.04 0.04 0.05 0.06 0.06 0.03 0.01 0.02 0.04 0.00 0.00 0.00 0.00 0.00 0.00 0.00 0.00 0.00 0.00
0.07 0.07 0.05 0.03 0.03 0.04 0.03 0.02 0.01 0.07 0.32 0.18 0.03 0.02 0.01 0.02 0.01 0.01 0.00 0.00 0.00 0.01 0.09 0.14 0.04 0.01 0.08 0.10 0.07 0.07 0.07 0.04 0.03 0.05 0.04 0.02 0.00 0.00 0.00 0.00 0.00 0.00 0.00 0.00 0.00
0.11 0.10 0.06 0.02 0.01 0.00 0.03 0.02 0.05 0.27 0.71 0.16 0.02 0.06 0.07 0.13 0.10 0.00 0.00 0.01 0.03 0.03 0.11 0.15 0.02 0.09 0.13 0.23 0.08 0.06 0.03 0.04 0.07 0.15 0.05 0.07 0.03 0.00 0.00 0.00 0.00 0.00 0.00 0.00 0.00
0.14 0.10 0.03 0.01 0.01 0.01 0.01 0.02 0.09 0.42 0.50 0.02 0.02 0.01 0.02 0.13 0.09 0.01 0.01 0.11 0.10 0.10 0.26 0.22 0.03 0.12 0.13 0.27 0.09 0.08 0.02 0.04 0.07 0.21 0.31 0.07 0.06 0.01 0.00 0.00 0.00 0.00 0.00 0.00 0.00
0.18 0.10 0.04 0.03 0.01 0.01 0.01 0.05 0.16 0.34 0.18 0.02 0.03 0.02 0.06 0.06 0.07 0.07 0.02 0.09 0.20 0.42 0.38 0.11 0.06 0.14 0.12 0.17 0.15 0.09 0.12 0.11 0.18 0.27 0.43 0.34 0.09 0.02 0.00 0.00 0.00 0.00 0.00 0.00 0.00
0.31 0.23 0.10 0.01 0.01 0.00 0.03 0.09 0.26 0.17 0.04 0.14 0.10 0.10 0.07 0.05 0.07 0.13 0.14 0.16 0.34 0.61 0.52 0.42 0.34 0.28 0.15 0.30 0.46 0.35 0.41 0.53 0.51 0.59 0.31 0.07 0.24 0.11 0.00 0.00 0.00 0.00 0.00 0.00 0.00
0.35 0.36 0.26 0.05 0.05 0.03 0.06 0.17 0.20 0.04 0.06 0.13 0.14 0.17 0.24 0.09 0.09 0.09 0.28 0.13 0.16 0.30 0.40 0.34 0.36 0.30 0.24 0.37 0.69 0.54 0.45 0.57 0.31 0.29 0.13 0.05 0.07 0.03 0.00 0.00 0.00 0.00 0.00 0.00 0.00
0.50 0.56 0.45 0.13 0.16 0.12 0.13 0.22 0.07 0.08 0.10 0.12 0.20 0.21 0.22 0.08 0.06 0.10 0.15 0.11 0.04 0.15 0.35 0.28 0.34 0.25 0.17 0.17 0.46 0.48 0.49 0.37 0.32 0.08 0.16 0.09 0.02 0.00 0.00 0.00 0.00 0.00 0.00 0.00 0.00
0.83 0.69 0.38 0.13 0.27 0.33 0.32 0.18 0.06 0.11 0.23 0.17 0.12 0.05 0.03 0.02 0.03 0.05 0.05 0.01 0.00 0.02 0.18 0.30 0.51 0.52 0.48 0.33 0.50 0.47 0.28 0.40 0.63 0.26 0.11 0.10 0.06 0.00 0.00 0.00 0.00 0.00 0.00 0.00 0.00
0.94 0.73 0.31 0.27 0.47 0.57 0.28 0.13 0.08 0.11 0.19 0.18 0.06 0.05 0.01 0.00 0.00 0.01 0.02 0.00 0.00 0.01 0.13 0.43 0.58 0.61 0.86 0.71 0.49 0.52 0.43 0.34 0.43 0.22 0.10 0.04 0.08 0.01 0.00 0.00 0.01 0.00 0.00 0.00 0.00
0.81 0.60 0.25 0.50 0.62 0.36 0.08 0.13 0.15 0.14 0.16 0.16 0.07 0.02 0.01 0.00 0.00 0.01 0.00 0.01 0.00 0.03 0.16 0.38 0.51 0.66 0.53 0.20 0.15 0.22 0.24 0.11 0.44 0.30 0.11 0.04 0.00 0.01 0.00 0.00 0.01 0.01 0.00 0.00 0.00
0.61 0.46 0.63 0.30 0.34 0.08 0.03 0.16 0.22 0.13 0.14 0.16 0.05 0.01 0.00 0.00 0.00 0.00 0.00 0.00 0.00 0.01 0.15 0.28 0.59 0.60 0.55 0.32 0.31 0.35 0.26 0.12 0.25 0.55 0.22 0.13 0.01 0.00 0.00 0.00 0.00 0.00 0.00 0.00 0.00
0.48 0.34 0.75 0.75 0.15 0.07 0.12 0.17 0.28 0.13 0.10 0.16 0.06 0.01 0.00 0.00 0.00 0.00 0.00 0.00 0.00 0.01 0.17 0.55 0.42 0.57 0.47 0.24 0.15 0.13 0.16 0.20 0.30 0.54 0.23 0.09 0.02 0.00 0.00 0.00 0.00 0.00 0.00 0.00 0.00
0.32 0.13 0.13 0.21 0.08 0.02 0.22 0.25 0.39 0.35 0.16 0.16 0.06 0.01 0.00 0.00 0.00 0.00 0.00 0.00 0.00 0.01 0.17 0.47 0.65 0.88 0.39 0.09 0.10 0.03 0.10 0.13 0.29 0.34 0.23 0.06 0.02 0.00 0.00 0.00 0.00 0.00 0.00 0.00 0.00
0.18 0.05 0.05 0.02 0.01 0.01 0.13 0.24 0.39 0.45 0.31 0.18 0.08 0.01 0.00 0.00 0.00 0.00 0.00 0.00 0.00 0.00 0.02 0.18 0.48 0.56 0.21 0.02 0.04 0.03 0.07 0.09 0.13 0.27 0.33 0.11 0.04 0.00 0.00 0.00 0.00 0.00 0.00 0.00 0.00
0.07 0.02 0.03 0.05 0.04 0.02 0.03 0.13 0.28 0.41 0.29 0.19 0.12 0.08 0.01 0.00 0.00 0.00 0.00 0.00 0.00 0.00 0.02 0.07 0.16 0.28 0.14 0.10 0.08 0.13 0.11 0.09 0.11 0.15 0.23 0.14 0.03 0.00 0.00 0.00 0.00 0.00 0.00 0.00 0.00